G6UIM Weather Reports


time (UTC)temp
F
wind
direction
speed
knots
gust
knots
rain 1hr
in
rain 24hr
in
rain mn
in
humidity
%
barometer
mb
20260502161036 51 45 0.9 3.5 0.07 0.49 0.49 91 1013.6
20260502152016 51 45 1.7 3.5 0.12 0.44 0.44 91 1014.2
20260502151016 51 45 0.9 3.5 0.13 0.42 0.42 91 1014.3
20260502123016 53 23 0.9 2.6 0.02 0.02 0.02 90 1015.8
20260502122016 53 23 0.9 2.6 0.02 0.02 0.02 89 1015.8
20260502121016 53 45 0.9 3.5 0.01 0.01 0.01 89 1016.0
20260502115016 53 23 0.9 4.3 0.00 0.00 0.00 89 1016.4
20260502114016 53 0 0.9 3.5 0.00 0.00 0.00 88 1016.4
20260502113016 54 68 0.9 4.3 0.00 0.00 0.00 88 1016.6
20260502112016 54 23 0.9 2.6 0.00 0.00 0.00 88 1016.5
20260502111016 54 45 0.9 2.6 0.00 0.00 0.00 87 1016.8
20260502110036 54 45 0.9 3.5 0.00 0.00 0.00 87 1017.0
20260502105016 54 45 0.9 3.5 0.00 0.00 0.00 86 1017.2
20260502104016 55 68 0.9 2.6 0.00 0.00 0.00 86 1017.2
20260502103016 55 90 0.9 4.3 0.00 0.00 0.00 86 1017.4
20260502102016 55 113 0.9 4.3 0.00 0.00 0.00 86 1017.4
20260502101016 55 113 0.9 4.3 0.00 0.00 0.00 86 1017.5
20260502091015 55 0.0 1.7 0.00 0.00 0.00 85 1017.9
20260502071035 52 0.0 0.0 0.00 0.00 0.00 92 1018.8
20260502070016 50 0.0 0.9 0.00 0.00 0.00 92 1018.7
20260502065016 49 0.0 0.0 0.00 0.00 0.00 91 1018.8
20260502064056 49 0.0 2.6 0.00 0.00 0.00 91 1018.9
20260502063015 48 315 0.9 1.7 0.00 0.00 0.00 91 1018.9
20260502062015 49 315 0.9 2.6 0.00 0.00 0.00 91 1018.8
20260502061056 49 0.0 0.0 0.00 0.00 0.00 91 1018.8
20260502060015 49 0.0 0.0 0.00 0.00 0.00 91 1018.7
20260502055015 49 0.0 0.0 0.00 0.00 0.00 91 1018.8
20260502054055 49 0.0 0.0 0.00 0.00 0.00 91 1018.9
20260502053017 48 0.0 0.0 0.00 0.00 0.00 91 1018.9
20260502052017 48 0.0 0.0 0.00 0.00 0.00 91 1019.1
20260502051017 48 0.0 0.0 0.00 0.00 0.00 91 1019.1
20260502050017 48 0.0 0.0 0.00 0.00 0.00 91 1019.3
20260502045037 48 0.0 0.0 0.00 0.00 0.00 91 1019.3
20260502044017 48 315 0.9 2.6 0.00 0.00 0.00 91 1019.4
20260502043037 48 315 0.9 1.7 0.00 0.00 0.00 91 1019.4
20260502042017 47 0.0 1.7 0.00 0.00 0.00 91 1019.5
20260502041017 48 0.0 0.0 0.00 0.00 0.00 91 1019.7
20260502040017 48 0.0 1.7 0.00 0.00 0.00 91 1019.6
20260502035017 48 270 0.9 2.6 0.00 0.00 0.00 90 1019.7
20260502034017 48 0.0 1.7 0.00 0.00 0.00 90 1019.7
20260502033017 48 270 0.9 2.6 0.00 0.00 0.00 90 1019.7
20260502032017 48 270 0.9 2.6 0.00 0.00 0.00 90 1019.6
20260502031017 48 0.0 0.0 0.00 0.00 0.00 90 1019.6
20260502030017 48 0.0 0.0 0.00 0.00 0.00 90 1019.7
20260502025017 49 0.0 0.0 0.00 0.00 0.00 90 1019.7
20260502024017 49 0.0 0.0 0.00 0.00 0.00 90 1019.7
20260502023017 49 0.0 0.0 0.00 0.00 0.00 90 1019.9
20260502022018 49 0.0 0.0 0.00 0.00 0.00 90 1020.0
20260502021037 49 0.0 0.0 0.00 0.00 0.00 90 1020.2
20260502020017 49 0.0 0.0 0.00 0.00 0.00 90 1020.4
20260502015017 49 0.0 0.0 0.00 0.00 0.00 90 1020.5
20260502014037 49 0.0 0.0 0.00 0.00 0.00 90 1020.7
20260502013017 49 0.0 0.0 0.00 0.00 0.00 90 1020.9
20260502012037 49 270 0.9 1.7 0.00 0.00 0.00 89 1020.9
20260502011017 49 0.0 1.7 0.00 0.00 0.00 89 1020.9
20260502010017 49 270 0.9 1.7 0.00 0.00 0.00 89 1021.1
20260502005017 49 270 0.9 1.7 0.00 0.00 0.00 89 1021.2
20260502004037 49 0.0 0.0 0.00 0.00 0.00 89 1021.2
20260502003017 50 0.0 0.9 0.00 0.00 0.00 89 1021.2
20260502002017 50 0.0 0.0 0.00 0.00 0.00 89 1021.2
20260502001017 50 0.0 0.0 0.00 0.00 0.00 89 1021.2
20260502000037 50 0.0 0.0 0.00 0.00 0.00 88 1021.3
20260501235017 51 0.0 0.0 0.00 0.00 0.00 88 1021.4
20260501234017 51 0.0 0.0 0.00 0.00 0.00 88 1021.5
20260501233017 51 0.0 0.9 0.00 0.00 0.00 88 1021.5
20260501232037 51 0.0 1.7 0.00 0.00 0.00 88 1021.4
20260501231017 51 0.0 0.9 0.00 0.00 0.00 88 1021.3
20260501230017 51 0.0 1.7 0.00 0.00 0.00 87 1021.5
20260501225016 52 0.0 1.7 0.00 0.00 0.00 87 1021.5
20260501224016 52 0.0 1.7 0.00 0.00 0.00 87 1021.6
20260501223037 52 270 1.7 2.6 0.00 0.00 0.00 87 1021.4
20260501222016 52 248 1.7 3.5 0.00 0.00 0.00 87 1021.6
20260501221016 53 270 1.7 5.2 0.00 0.00 0.00 87 1021.6
20260501220016 53 248 1.7 3.5 0.00 0.00 0.00 87 1021.6
20260501215016 53 0 2.6 5.2 0.00 0.00 0.00 86 1021.7
20260501214016 53 0 1.7 5.2 0.00 0.00 0.00 86 1021.7
20260501213016 53 270 1.7 5.2 0.00 0.00 0.00 86 1021.9
20260501212016 53 0 1.7 3.5 0.00 0.00 0.00 85 1021.8
20260501211037 54 270 1.7 3.5 0.00 0.00 0.00 85 1021.8
20260501210016 54 248 1.7 7.0 0.00 0.00 0.00 85 1021.8
20260501205016 54 270 1.7 3.5 0.00 0.00 0.00 85 1021.8
20260501204016 54 270 1.7 5.2 0.00 0.00 0.00 85 1021.7
20260501203017 54 293 1.7 3.5 0.00 0.00 0.00 85 1021.8
20260501202016 54 270 1.7 5.2 0.00 0.00 0.00 84 1021.7
20260501201016 54 0 1.7 4.3 0.00 0.00 0.00 84 1021.7
20260501200016 54 248 1.7 3.5 0.00 0.00 0.00 84 1021.5
20260501195016 55 248 1.7 4.3 0.00 0.00 0.00 84 1021.4
20260501194016 55 270 1.7 5.2 0.00 0.00 0.00 83 1021.3
20260501193016 55 248 1.7 6.1 0.00 0.00 0.00 83 1021.2
20260501192016 55 0 1.7 5.2 0.00 0.00 0.00 83 1021.2
20260501191016 56 270 1.7 5.2 0.00 0.00 0.00 82 1021.1
20260501190016 56 270 1.7 4.3 0.00 0.00 0.00 82 1021.0
20260501185016 56 248 1.7 6.1 0.00 0.00 0.00 82 1021.0
20260501184016 56 270 0.9 3.5 0.00 0.00 0.00 81 1020.9
20260501183016 57 0 1.7 5.2 0.00 0.00 0.00 81 1020.9
20260501182016 57 0 2.6 6.1 0.00 0.00 0.00 81 1021.0
20260501181016 57 248 1.7 5.2 0.00 0.00 0.00 80 1021.0
20260501180016 57 0 2.6 7.0 0.00 0.00 0.00 79 1021.1
20260501175016 58 0 1.7 7.0 0.00 0.00 0.00 78 1021.0
20260501174016 58 270 1.7 5.2 0.00 0.00 0.00 78 1021.0
20260501173016 58 270 2.6 5.2 0.00 0.00 0.00 77 1021.0
20260501172016 58 0 2.6 7.0 0.00 0.00 0.00 77 1020.9
20260501171016 59 0 1.7 4.3 0.00 0.00 0.00 77 1021.0
20260501170016 59 225 3.5 7.8 0.00 0.00 0.00 77 1021.1
20260501165016 59 0 3.5 8.7 0.00 0.00 0.00 77 1021.1
20260501164036 60 225 4.3 8.7 0.00 0.00 0.00 77 1021.2
20260501163016 60 0 5.2 11.3 0.00 0.00 0.00 75 1021.2
20260501162016 61 248 4.3 7.8 0.00 0.00 0.00 75 1021.0